DB0SVX Weather Reports


Display with metric or nautical units.
time (UTC)temp
F
wind
direction
speed
MPH
gust
MPH
rain 1hr
in
rain 24hr
in
rain mn
in
humidity
%
barometer
mb
20260503195520 58 22 3.0 0.0 0.00 0.00 0.00 46 1012.9
20260503194020 60 90 0.0 0.0 0.00 0.00 0.00 45 1012.7
20260503192520 61 247 0.0 0.0 0.00 0.00 0.00 44 1012.4
20260503191020 62 22 1.0 0.0 0.00 0.00 0.00 43 1012.0
20260503185520 63 202 3.0 0.0 0.00 0.00 0.00 41 1012.0
20260503184020 64 0 0.0 0.0 0.00 0.00 0.00 38 1011.7
20260503182520 65 292 0.0 0.0 0.00 0.00 0.00 37 1011.4
20260503181020 67 337 0.0 0.0 0.00 0.00 0.00 34 1011.4
20260503175521 69 337 0.0 0.0 0.00 0.00 0.00 32 1011.4
20260503174020 71 337 0.0 0.0 0.00 0.00 0.00 30 1011.5
20260503172520 73 0 1.0 0.0 0.00 0.00 0.00 29 1011.4
20260503171020 76 67 0.0 0.0 0.00 0.00 0.00 28 1011.4
20260503131020 81 0 3.0 0.0 0.00 0.00 0.00 23 1012.4
20260503081020 72 292 0.0 0.0 0.00 0.00 0.00 35 1014.5
20260503072520 66 337 0.0 0.0 0.00 0.00 0.00 39 1014.5
20260503071020 64 0 0.0 0.0 0.00 0.00 0.00 40 1014.5
20260503054020 52 112 0.0 0.0 0.00 0.00 0.00 45 1014.2
20260503052520 50 112 0.0 0.0 0.00 0.00 0.00 45 1014.2
20260503051020 49 112 0.0 0.0 0.00 0.00 0.00 45 1014.4
20260503045520 48 112 0.0 0.0 0.00 0.00 0.00 45 1014.5
20260503044020 46 112 0.0 0.0 0.00 0.00 0.00 46 1014.5
20260503042520 45 112 0.0 0.0 0.00 0.00 0.00 47 1014.5
20260503041020 45 112 0.0 0.0 0.00 0.00 0.00 48 1014.4
20260503035520 45 112 0.0 0.0 0.00 0.00 0.00 48 1014.4
20260503034020 45 112 0.0 0.0 0.00 0.00 0.00 49 1014.4
20260503032520 45 157 0.0 0.0 0.00 0.00 0.00 49 1014.4
20260503031020 46 157 0.0 0.0 0.00 0.00 0.00 49 1014.4
20260503025520 46 157 0.0 0.0 0.00 0.00 0.00 50 1014.5
20260503024020 46 157 0.0 0.0 0.00 0.00 0.00 50 1014.5
20260503022520 47 157 0.0 0.0 0.00 0.00 0.00 50 1014.5
20260503021020 47 157 0.0 0.0 0.00 0.00 0.00 50 1014.7
20260503015520 48 157 0.0 0.0 0.00 0.00 0.00 50 1014.7
20260503014020 48 157 0.0 0.0 0.00 0.00 0.00 50 1014.5
20260503012520 48 157 0.0 0.0 0.00 0.00 0.00 50 1014.7
20260503011020 48 157 0.0 0.0 0.00 0.00 0.00 50 1014.5
20260503005520 48 157 0.0 0.0 0.00 0.00 0.00 51 1014.7
20260503004020 48 157 0.0 0.0 0.00 0.00 0.00 51 1014.7
20260503002520 48 157 0.0 0.0 0.00 0.00 0.00 51 1014.9
20260503001020 49 157 0.0 0.0 0.00 0.00 0.00 51 1015.0
20260502235520 48 157 0.0 0.0 0.00 0.00 0.00 51 1015.2
20260502234020 49 157 0.0 0.0 0.00 0.00 0.00 51 1015.0
20260502232520 49 157 0.0 0.0 0.00 0.00 0.00 52 1015.0
20260502231020 50 157 0.0 0.0 0.00 0.00 0.00 52 1015.2
20260502225520 50 157 0.0 0.0 0.00 0.00 0.00 52 1015.2
20260502224020 50 157 0.0 0.0 0.00 0.00 0.00 52 1015.2
20260502222520 50 157 0.0 0.0 0.00 0.00 0.00 52 1015.5
20260502221020 51 157 0.0 0.0 0.00 0.00 0.00 51 1015.4
20260502215520 51 157 0.0 0.0 0.00 0.00 0.00 51 1015.4
20260502214020 52 157 0.0 0.0 0.00 0.00 0.00 50 1015.4
20260502212520 53 157 0.0 0.0 0.00 0.00 0.00 50 1015.4
20260502211020 54 157 0.0 0.0 0.00 0.00 0.00 49 1015.5
20260502205520 55 157 0.0 0.0 0.00 0.00 0.00 48 1015.5
20260502204020 55 157 0.0 0.0 0.00 0.00 0.00 47 1015.7
20260502202520 56 157 0.0 0.0 0.00 0.00 0.00 46 1015.9
20260502201020 57 157 0.0 0.0 0.00 0.00 0.00 45 1015.9